Grand Etang, Nova Scotia

4:39 PM AST on January 21, 2018 (GMT -0400)
Grand Etang

Weather History for CWZQ - September, 2013

Change the Weather History Date:

Monday, September 30, 2013

  Actual Average Record
Temperature  
Mean Temperature 46 °F -  
Max Temperature 66 °F - - ()
Min Temperature 26 °F - - ()
Degree Days  
Heating Degree Days 19    
Moisture  
Dew Point 50 °F    
Average Humidity 78    
Maximum Humidity 88    
Minimum Humidity 67    
Precipitation  
Precipitation 0.00 in - - ()
Sea Level Pressure  
Sea Level Pressure 30.04 in    
Wind  
Wind Speed 7 mph ()    
Max Wind Speed 10 mph    
Max Gust Speed -    
Visibility 10.0 miles    
Events      
T = Trace of Precipitation, MM = Missing Value Source: Averaged Metar Reports

Daily Weather History Graph

Daily Weather History Graph

Search for Another Location

Airport or City:

Trip Planner

Search our weather history database for the weather conditions in past years. The results will help you decide how hot, cold, wet, or windy it might be!

Date:

Astronomy

Sep. 30, 2013 Rise Set
Actual Time 7:01 AM ADT 6:45 PM ADT
Civil Twilight 6:31 AM ADT 7:15 PM ADT
Nautical Twilight 5:56 AM ADT 7:50 PM ADT
Astronomical Twilight 5:20 AM ADT 8:26 PM ADT
Moon 2:20 AM ADT (9/30) 4:25 PM ADT (9/30)
Length of Visible Light 12h 44m
Length of Day
11h 43m
Waning Crescent, 19% of the Moon is Illuminated
Sep 30
Waning Crescent
Oct 4
New
Oct 11
First Quarter
Oct 18
Full
Oct 26
Last Quarter

Hourly Weather History & Observations

Time (ADT) Temp. Dew Point Humidity Pressure Visibility Wind Dir Wind Speed Gust Speed Precip Events Conditions
12:00 AM 57.6 °F 51.3 °F 79% 30.10 in - SE 9.2 mph - N/A   Unknown
12:20 AM 56.7 °F 49.8 °F 78% - - SE 8.1 mph - N/A   Unknown
12:40 AM 55.8 °F 48.9 °F 78% - - SE 8.1 mph - N/A   Unknown
1:00 AM 55.4 °F 48.7 °F 78% 30.10 in - SE 9.2 mph - N/A   Unknown
1:20 AM 55.9 °F 48.4 °F 76% - - SSE 8.1 mph - N/A   Unknown
1:40 AM 57.0 °F 48.7 °F 74% - - SSE 9.2 mph - N/A   Unknown
2:00 AM 55.6 °F 48.2 °F 76% 30.11 in - SSE 9.2 mph - N/A   Unknown
2:20 AM 55.4 °F 47.8 °F 76% - - SE 8.1 mph - N/A   Unknown
2:40 AM 55.0 °F 48.7 °F 79% - - SE 9.2 mph - N/A   Unknown
3:00 AM 31 °F 29 °F 88% 29.73 in 10 mi NE 9.2 mph - -   Overcast
3:00 AM 54.9 °F 48.7 °F 80% 30.11 in - SSE 9.2 mph - N/A   Unknown
3:20 AM 54.0 °F 48.0 °F 80% - - SSE 8.1 mph - N/A   Unknown
3:40 AM 54.5 °F 48.9 °F 81% - - SSE 9.2 mph - N/A   Unknown
4:00 AM 53.6 °F 48.4 °F 82% 30.10 in - SE 9.2 mph - N/A   Unknown
4:20 AM 53.4 °F 48.0 °F 82% - - SE 8.1 mph - N/A   Unknown
4:40 AM 53.4 °F 48.2 °F 82% - - SE 8.1 mph - N/A   Unknown
5:00 AM 52.7 °F 47.5 °F 82% 30.10 in - SE 8.1 mph - N/A   Unknown
5:20 AM 52.2 °F 46.2 °F 80% - - SE 8.1 mph - N/A   Unknown
5:40 AM 52.0 °F 46.2 °F 81% - - SE 9.2 mph - N/A   Unknown
6:00 AM 52.7 °F 46.6 °F 80% 30.11 in - SE 9.2 mph - N/A   Unknown
6:20 AM 51.6 °F 46.4 °F 82% - - SE 8.1 mph - N/A   Unknown
6:40 AM 52.3 °F 47.1 °F 82% - - SE 9.2 mph - N/A   Unknown
7:00 AM 52.9 °F 47.3 °F 81% 30.11 in - SE 10.4 mph - N/A   Unknown
7:20 AM 52.5 °F 47.1 °F 82% - - SE 8.1 mph - N/A   Unknown
7:40 AM 51.8 °F 46.6 °F 82% - - SE 6.9 mph - N/A   Unknown
8:00 AM 52.0 °F 47.3 °F 84% 30.10 in - SE 10.4 mph - N/A   Unknown
8:20 AM 55.2 °F 49.6 °F 81% - - SE 5.8 mph - N/A   Unknown
8:40 AM 58.3 °F 51.3 °F 77% - - SE 4.6 mph - N/A   Unknown
9:00 AM 30 °F 27 °F 85% 29.75 in 10 mi NNE 8.1 mph - -   Overcast
9:00 AM 60.6 °F 52.0 °F 73% 30.11 in - South 8.1 mph - N/A   Unknown
9:20 AM 61.7 °F 51.4 °F 69% - - South 5.8 mph - N/A   Unknown
9:40 AM 62.4 °F 52.0 °F 69% - - South 5.8 mph - N/A   Unknown
10:00 AM 62.4 °F 51.3 °F 67% 30.11 in - SSW 6.9 mph - N/A   Unknown
10:20 AM 63.0 °F 52.3 °F 68% - - SSW 8.1 mph - N/A   Unknown
10:40 AM 62.4 °F 52.2 °F 69% - - SW 9.2 mph - N/A   Unknown
11:00 AM 62.8 °F 52.5 °F 69% 30.11 in - SW 9.2 mph - N/A   Unknown
11:20 AM 63.0 °F 53.2 °F 71% - - SW 9.2 mph - N/A   Unknown
11:40 AM 63.0 °F 53.8 °F 72% - - SW 10.4 mph - N/A   Unknown
12:00 PM 64.0 °F 54.5 °F 71% 30.08 in - SW 10.4 mph - N/A   Unknown
12:20 PM 63.7 °F 54.5 °F 72% - - SW 10.4 mph - N/A   Unknown
12:40 PM 63.7 °F 54.9 °F 73% - - SW 10.4 mph - N/A   Unknown
1:00 PM 64.2 °F 55.9 °F 74% 30.08 in - SW 10.4 mph - N/A   Unknown
1:20 PM 65.1 °F 55.4 °F 71% - - WSW 8.1 mph - N/A   Unknown
1:40 PM 65.7 °F 56.1 °F 71% - - WSW 8.1 mph - N/A   Unknown
2:00 PM 64.9 °F 56.5 °F 74% 30.06 in - WSW 10.4 mph - N/A   Unknown
2:20 PM 65.3 °F 56.3 °F 73% - - WSW 8.1 mph - N/A   Unknown
2:40 PM 65.1 °F 57.0 °F 75% - - SW 9.2 mph - N/A   Unknown
3:00 PM 27 °F 24 °F 82% 29.77 in 10 mi WNW 8.1 mph - -   Overcast
3:00 PM 65.1 °F 56.8 °F 75% 30.06 in - WSW 9.2 mph - N/A   Unknown
3:20 PM 65.7 °F 56.7 °F 73% - - WSW 5.8 mph - N/A   Unknown
3:40 PM 66.4 °F 57.0 °F 72% - - WSW 6.9 mph - N/A   Unknown
4:00 PM 63.3 °F 55.6 °F 76% 30.04 in - WSW 9.2 mph - N/A   Unknown
4:20 PM 62.4 °F 55.8 °F 79% - - SW 6.9 mph - N/A   Unknown
4:40 PM 61.9 °F 55.4 °F 79% - - SW 4.6 mph - N/A   Unknown
5:00 PM 61.7 °F 55.4 °F 80% 30.04 in - WSW 6.9 mph - N/A   Unknown
5:20 PM 61.5 °F 55.2 °F 80% - - NW 1.2 mph - N/A   Unknown
5:40 PM 60.8 °F 54.5 °F 80% - - Calm Calm - N/A   Unknown
6:00 PM 60.3 °F 54.1 °F 80% 30.05 in - NNW 4.6 mph - N/A   Unknown
6:20 PM 59.4 °F 53.4 °F 81% - - ENE 2.3 mph - N/A   Unknown
6:40 PM 58.5 °F 53.2 °F 83% - - Calm Calm - N/A   Unknown
7:00 PM 56.3 °F 51.4 °F 84% 30.06 in - ESE 4.6 mph - N/A   Unknown
7:20 PM 55.8 °F 50.7 °F 83% - - SE 6.9 mph - N/A   Unknown
7:40 PM 55.4 °F 50.4 °F 83% - - ESE 5.8 mph - N/A   Unknown
8:00 PM 55.8 °F 50.0 °F 81% 30.05 in - ESE 6.9 mph - N/A   Unknown
8:20 PM 56.3 °F 50.0 °F 79% - - East 3.5 mph - N/A   Unknown
8:40 PM 55.0 °F 48.7 °F 79% - - SE 3.5 mph - N/A   Unknown
9:00 PM 26 °F 24 °F 86% 29.81 in 10 mi North 10.4 mph - -   Overcast
9:00 PM 54.7 °F 49.1 °F 81% 30.06 in - SE 5.8 mph - N/A   Unknown
9:20 PM 55.8 °F 49.5 °F 79% - - East 2.3 mph - N/A   Unknown
9:40 PM 55.4 °F 48.6 °F 78% - - ESE 2.3 mph - N/A   Unknown
10:00 PM 54.5 °F 48.7 °F 81% 30.04 in - SE 5.8 mph - N/A   Unknown
10:20 PM 54.9 °F 49.1 °F 81% - - SE 6.9 mph - N/A   Unknown
10:40 PM 55.4 °F 49.3 °F 80% - - SE 5.8 mph - N/A   Unknown
11:00 PM 56.1 °F 49.6 °F 79% 30.03 in - East 6.9 mph - N/A   Unknown
11:20 PM 56.1 °F 49.5 °F 78% - - SE 3.5 mph - N/A   Unknown
11:40 PM 56.3 °F 49.8 °F 79% - - ESE 4.6 mph - N/A   Unknown